Weather in Velikopol'ye

Russia / Mari El Republic     56°48′44″N   48°04′41″E
temp.,
°C
wind,
m/s
gust,
m/s
humid.,
%
clouds,
%
prec.,
mm/h
press.,
hPa
HPBL,
m
21 january, fri
fri2100:00−7ssw61489100 0.0 1013541
03:00−9s5129073 0.0 1014407
06:00−11s6149190 0.0 1014396
09:00−12s51591100 0.0 1015380
12:00−10s51589100 0.0 1015484
15:00−9sse51389100 0.0 1016424
18:00−10sse51490100 0.0 1015383
21:00−10sse61590100 0.0 1015405
22 january, sat
sat2200:00−11sse61689100 0.0 1015449
03:00−11se61590100 0.0 1015501
06:00−10sse61393100 0.4 1016555
09:00−10sse5119299 0.6 1018392
12:00−8se4993100 0.0 1019389
15:00−7ese4995100 0.3 1019483
18:00−7se41094100 1.0 1020590
21:00−6se41193100 1.2 1020416
23 january, sun
sun2300:00−5se51195100 0.9 1020617
03:00−5sse5119492 1.6 1021527
06:00−6s41095100 0.2 1023313
09:00−9s3797100 0.3 1026152
12:00−6s259799 0.0 1028232
15:00−7s1198100 0.1 103012
18:00−10ssw1199100 0.1 103210
21:00−12wnw0199100 0.1 103410
24 january, mon
mon2400:00−14n01100100 0.1 10359
03:00−16ne11100100 0.1 10379
06:00−17nne11100100 0.0 10379
09:00−18nne22100100 0.1 103914
12:00−9ne119668 0.0 103869
15:00−11ene119753 0.0 103810
18:00−16ene2210099 0.0 10389
21:00−17e22100100 0.0 103710
25 january, tue
tue2500:00−18se2210089 0.0 103611
03:00−20sse22997 0.0 103521
06:00−18sse25976 0.0 103458
09:00−18sse27988 0.0 103393
12:00−11s37925 0.0 1031193
15:00−11s37925 0.0 1030169
18:00−14s3992100 0.0 1029131
21:00−15s3894100 0.0 1028127